Weather in Tczew

Poland     54°05′31″N   18°46′39″E
temp.,
°C
wind,
m/s
gust,
m/s
humid.,
%
clouds,
%
prec.,
mm/h
press.,
hPa
HPBL,
m
22 october, fri
fri2223:00+9wsw91573100 0.6 9961282
02:00+8w101765100 0.8 9981552
05:00+7wsw9166993 0.1 10001293
08:00+7wsw9157197 0.2 10021330
11:00+7wsw101670100 0.0 10021244
14:00+9sw121970100 0.1 10001443
17:00+7sw122180100 0.6 9991489
20:00+8w91574100 1.8 10021179
23 october, sat
sat2323:00+6wsw915735 0.1 1005893
02:00+6wsw9158199 0.1 1006917
05:00+7w7147726 0.1 1008653
08:00+7w8147463 0.1 1010756
11:00+9w81269100 0.4 10121260
14:00+9nw911525 0.9 10161503
17:00+6nw611605 0.0 10201033
20:00+4wnw36707 0.0 1023113
24 october, sun
sun2423:00+3wnw34755 0.0 102551
02:00+3w33775 0.0 102741
05:00+3w33776 0.0 102834
08:00+3w228170 0.0 103022
11:00+8sw2363100 0.0 1031344
14:00+10sw23549 0.0 1030828
17:00+8s3366100 0.0 103040
20:00+6ssw358114 0.0 102970
25 october, mon
mon2523:00+5s378429 0.0 1030121
02:00+4s49855 0.0 1028172
05:00+3s4118810 0.0 1027207
08:00+3s412855 0.0 1026262
11:00+8s710540 0.0 1025474
14:00+11ssw610420 0.0 1023704
17:00+9s510500 0.0 1022234
20:00+6ssw41062100 0.0 1022192
26 october, tue
tue2623:00+5ssw4868100 0.0 1022143
02:00+5sw4873100 0.0 1021141
05:00+5sw4881100 0.0 1020155
08:00+5sw41082100 0.0 1020208
11:00+9wsw510710 0.0 1020380
14:00+14wsw68585 0.0 1020847
17:00+11wsw477399 0.0 1020128
20:00+11sw4980100 0.0 1020276